#timestamp,LO_Frequency,Hit,StdDev 
1503889215.9,286047000.6,N,1.1
1503889235.7,286047002.5,N,1.4
1503889255.5,286046999.8,N,1.3
1503889275.4,286047002.6,N,1.4
1503889295.2,286047002.4,N,1.5
1503889315.0,286047002.4,N,1.5
1503889315.9,286047002.4,N,1.5
1503889335.8,286047000.1,N,1.5
1503889355.6,286047002.3,N,1.4
1503889375.4,286047002.1,N,1.4
1503889395.3,286047002.1,N,1.4
1503889415.1,286047004.0,N,1.5
1503889435.8,286047001.8,N,1.5
1503889455.7,286047001.4,N,1.4
1503889475.5,286047004.3,N,1.5
1503889495.3,286047001.4,N,1.5
1503889515.2,286047004.4,N,1.6
1503889535.0,286047003.8,N,1.6
1503889535.9,286047003.8,N,1.6
1503889555.7,286047004.4,N,1.7
1503889575.6,286047001.4,N,1.6
1503889595.4,286047004.1,N,1.7
1503889615.2,286047003.2,N,1.6
1503889635.1,286047003.8,N,1.6
1503889636.0,286047003.8,N,1.6
1503889655.8,286047004.2,N,1.7
1503889675.7,286047003.2,N,1.6
1503889695.5,286047003.4,N,1.4
1503889715.3,286047003.3,N,1.3
1503889735.2,286047003.2,N,1.3
1503889755.9,286047005.9,Y,0.0
1503889775.7,286047002.1,P,0.3
1503889795.6,286047002.6,P,0.3
1503889815.4,286047001.7,P,0.4
1503889835.2,286047001.8,Y,0.0
1503889855.1,286046998.1,P,2.1
1503889856.0,286046998.1,N,2.0
1503889875.8,286047000.6,N,1.8
1503889895.6,286047001.1,N,1.7
1503889915.5,286046998.6,N,1.6
1503889935.3,286047001.2,N,1.6
1503889955.1,286047001.0,N,1.5
1503889975.9,286047002.8,N,1.7
1503889995.7,286047000.1,N,1.6
1503890015.5,286047000.4,N,1.5
1503890035.4,286047001.2,N,1.5
1503890055.2,286046998.6,N,1.5
1503890075.1,286046998.5,N,1.5
1503890076.0,286046998.5,N,1.5
1503890095.8,286046998.3,N,1.5
1503890115.6,286047000.9,N,1.5
1503890135.5,286047000.6,N,1.5
1503890155.3,286047000.9,N,1.4
1503890175.1,286046998.8,N,1.4
1503890195.9,286046998.6,N,1.4
1503890215.7,286046998.1,N,1.4
1503890235.5,286046999.9,N,1.4
1503890255.4,286047000.0,N,1.4
1503890275.2,286047000.1,N,1.4
1503890295.0,286047000.3,N,1.3
1503890295.9,286047000.3,N,1.3
1503890315.8,286047000.1,N,1.3
1503890335.6,286046999.9,N,1.3
1503890355.4,286047000.5,N,1.2
1503890375.3,286047002.4,N,1.3
1503890395.1,286047000.9,N,1.2
1503890415.8,286046998.7,N,1.2
1503890435.7,286046998.7,N,1.2
1503890455.5,286047001.0,N,1.2
1503890475.3,286047002.6,N,1.3
1503890495.2,286047000.2,N,1.2
1503890515.0,286047000.2,N,1.2
1503890515.9,286047000.2,N,1.1
1503890535.8,286047001.9,N,1.2
1503890555.6,286047004.4,Y,0.0
1503890575.4,286047001.4,P,0.7
1503890595.3,286047001.5,N,0.7
1503890615.1,286047002.6,P,0.9
1503890635.8,286047002.2,N,0.9
1503890655.7,286047000.3,N,0.9
1503890675.5,286047000.5,N,0.9
1503890695.3,286047000.0,N,0.9
1503890715.2,286047000.4,N,0.9
1503890735.0,286047000.2,N,0.9
1503890735.9,286047000.2,N,0.9
1503890755.7,286047002.5,N,1.0
1503890775.6,286047000.7,N,0.9
1503890795.4,286047001.0,N,0.9
1503890815.2,286047000.9,N,0.9
1503890835.1,286047000.1,N,0.9
1503890836.0,286047000.1,N,0.9
1503890855.8,286047002.6,Y,0.0
1503890875.7,286047002.8,P,1.0
1503890895.5,286047002.8,N,0.9
1503890915.3,286046999.7,N,1.3
1503890935.2,286047002.8,N,1.3
1503890955.9,286047002.0,N,1.2
1503890975.7,286047002.7,N,1.1
1503890995.6,286047002.5,N,1.1
1503891015.4,286047002.8,N,1.0
1503891035.2,286046999.8,N,1.2
1503891055.1,286047002.4,N,1.2
1503891056.0,286047002.4,N,1.1
1503891075.8,286047000.1,N,1.2
1503891095.6,286047002.2,N,1.1
1503891115.5,286047002.7,N,1.1
1503891135.3,286047002.2,N,1.1
1503891155.1,286047002.4,N,1.1
1503891175.9,286047002.7,N,1.1
1503891195.7,286047002.8,N,1.0
1503891215.6,286047000.9,N,1.0
1503891235.4,286047002.5,N,1.0
1503891255.2,286047002.4,N,1.0
1503891275.1,286047002.4,N,1.0
1503891276.0,286047002.4,N,1.0
1503891295.8,286047002.4,N,0.9
1503891315.6,286046999.7,N,1.0
1503891335.5,286047002.7,N,1.0
1503891355.3,286047002.7,N,1.0
1503891375.1,286047002.5,N,1.0
1503891395.9,286047004.3,Y,0.0
1503891415.7,286046998.3,P,1.9
1503891435.5,286046998.6,N,1.7
1503891455.4,286047001.1,N,1.6
1503891475.2,286047000.8,N,1.5
1503891495.0,286047000.5,N,1.3
1503891495.9,286047000.5,N,1.2
1503891515.8,286047000.9,N,1.2
1503891535.6,286047000.7,N,1.1
1503891555.4,286047000.8,N,1.1
1503891575.3,286046998.5,N,1.2
1503891595.1,286046998.5,N,1.2
1503891615.9,286046998.5,N,1.2
1503891635.7,286046998.3,N,1.3
1503891655.5,286046998.2,N,1.3
1503891675.4,286047001.2,N,1.3
1503891695.2,286047000.6,N,1.3
1503891715.0,286046999.8,N,1.2
1503891715.9,286046999.8,N,1.2
1503891735.8,286047000.5,N,1.2
1503891755.6,286047000.3,N,1.2
1503891775.4,286047002.8,N,1.3
1503891795.3,286046999.8,N,1.3
1503891815.1,286047000.5,N,1.2
1503891835.8,286046999.9,N,1.2
1503891855.7,286047000.5,N,1.2
1503891875.5,286047000.5,N,1.2
1503891895.3,286047000.0,N,1.1
1503891915.2,286047002.7,N,1.2
1503891935.0,286046999.7,N,1.2
1503891935.9,286046999.7,N,1.2
1503891955.7,286047000.3,N,1.1
1503891975.6,286047000.0,N,1.1
1503891995.4,286047002.5,N,1.1
1503892015.2,286047000.0,N,1.1
1503892035.1,286047000.5,N,1.1
1503892036.0,286047000.5,N,1.1
1503892055.8,286047000.0,N,1.1
1503892075.7,286046999.7,N,1.1
1503892095.5,286047000.1,N,1.1
1503892115.3,286047000.5,N,1.1
1503892135.2,286047000.7,N,1.0
1503892155.9,286046998.4,N,1.0
1503892175.7,286047001.0,N,1.0
1503892195.6,286046998.2,N,1.0
1503892215.4,286046998.6,N,1.0
1503892235.2,286046998.9,N,1.0
1503892255.1,286046999.0,N,1.1
1503892256.0,286046999.0,N,1.1
1503892275.8,286046999.0,N,1.1
1503892295.6,286046998.1,N,1.2
1503892315.5,286046998.3,N,1.1
1503892335.3,286047001.1,N,1.1
1503892355.1,286046998.3,N,1.1
1503892375.9,286047001.0,N,1.2
1503892395.7,286046998.2,N,1.2
1503892415.5,286047000.0,N,1.2
1503892435.4,286046999.7,N,1.2
1503892455.2,286047002.4,N,1.2
1503892475.0,286046999.9,N,1.2
1503892475.9,286046999.9,N,1.2
1503892495.8,286047002.2,N,1.2
1503892515.6,286047000.1,N,1.2
1503892535.5,286047002.5,N,1.2
1503892555.3,286047002.5,N,1.3
1503892575.1,286047002.3,N,1.4
1503892595.9,286047002.5,N,1.5
1503892615.7,286047002.4,N,1.5
1503892635.5,286047001.6,N,1.5
1503892655.4,286047002.0,N,1.6
1503892675.2,286047002.2,N,1.6
1503892695.0,286047004.0,N,1.7
1503892695.9,286047004.0,N,1.8
1503892715.8,286047001.7,N,1.8
1503892735.6,286047002.9,N,1.8
1503892755.4,286047003.9,N,1.8
1503892775.3,286047004.2,N,1.9
1503892795.1,286047004.1,N,1.9
